When you browse on this site, cookies collect data to enhance your experience and personalize the content and advertising you see.
Visit our Privacy Policy to learn more. By continuing to use the site, you agree to this use of cookies and data.
  • In Latvia
  • List of Countries
  • For 7 days
  • Water Temperature
  • Satellite Maps
  • Weather Map
  • Weather Widgets
  • user-avatar
    Login

    Hourly Weather Abovyan

    Today, 11 December, Tuesday

    Time Temperature Precipitation Wind Pressure Humidity
    00:00 +4°C° 0 mm 2 mps 670 mmHg 74%
    01:00 +3°C° 0 mm 2 mps 670 mmHg 74%
    02:00 +3°C° 0 mm 2 mps 670 mmHg 75%
    03:00 +3°C° 0 mm 2 mps 669 mmHg 76%
    04:00 +3°C° 0 mm 2 mps 669 mmHg 76%
    05:00 +3°C° 0 mm 2 mps 669 mmHg 76%
    06:00 +2°C° 0 mm 3 mps 669 mmHg 76%
    07:00 +3°C° 0 mm 3 mps 669 mmHg 73%
    08:00 +4°C° 0 mm 3 mps 669 mmHg 71%
    09:00 +4°C° 0 mm 3 mps 669 mmHg 68%
    10:00 +6°C° 0 mm 4 mps 669 mmHg 65%
    11:00 +7°C° 0 mm 4 mps 668 mmHg 63%
    12:00 +8°C° 0 mm 4 mps 668 mmHg 60%
    13:00 +8°C° 0.1 mm 4 mps 667 mmHg 60%
    14:00 +8°C° 0.1 mm 4 mps 667 mmHg 59%
    15:00 +8°C° 0.1 mm 4 mps 667 mmHg 59%
    16:00 +7°C° 0 mm 4 mps 667 mmHg 62%
    17:00 +7°C° 0 mm 3 mps 667 mmHg 65%
    18:00 +5°C° 0 mm 3 mps 667 mmHg 68%
    19:00 +5°C° 0.2 mm 3 mps 667 mmHg 69%
    20:00 +5°C° 0.2 mm 3 mps 667 mmHg 71%
    21:00 +5°C° 0.2 mm 3 mps 667 mmHg 72%
    22:00 +5°C° 0.6 mm 3 mps 667 mmHg 74%
    23:00 +5°C° 0.6 mm 3 mps 668 mmHg 77%

    Tomorrow, 12 December, Wednesday

    Time Temperature Precipitation Wind Pressure Humidity
    00:00 +5°C° 0.6 mm 3 mps 668 mmHg 79%
    01:00 +5°C° 0.5 mm 3 mps 668 mmHg 80%
    02:00 +5°C° 0.5 mm 3 mps 668 mmHg 81%
    03:00 +5°C° 0.5 mm 3 mps 668 mmHg 82%
    04:00 +4°C° 0.3 mm 3 mps 668 mmHg 82%
    05:00 +4°C° 0.3 mm 3 mps 668 mmHg 82%
    06:00 +4°C° 0.3 mm 3 mps 668 mmHg 82%
    07:00 +4°C° 0.3 mm 3 mps 667 mmHg 80%
    08:00 +5°C° 0.3 mm 4 mps 667 mmHg 78%
    09:00 +5°C° 0.3 mm 5 mps 667 mmHg 76%
    10:00 +5°C° 0.8 mm 5 mps 666 mmHg 76%
    11:00 +6°C° 0.8 mm 5 mps 665 mmHg 76%
    12:00 +5°C° 0.8 mm 6 mps 665 mmHg 76%
    13:00 +6°C° 1.3 mm 5 mps 664 mmHg 76%
    14:00 +6°C° 1.3 mm 5 mps 664 mmHg 77%
    15:00 +6°C° 1.3 mm 4 mps 663 mmHg 77%
    16:00 +6°C° 1.8 mm 4 mps 663 mmHg 79%
    17:00 +7°C° 1.8 mm 3 mps 664 mmHg 80%
    18:00 +7°C° 1.8 mm 3 mps 664 mmHg 81%
    19:00 +7°C° 1.5 mm 3 mps 664 mmHg 82%
    20:00 +7°C° 1.5 mm 3 mps 664 mmHg 82%
    21:00 +7°C° 1.5 mm 3 mps 664 mmHg 82%
    22:00 +5°C° 1.5 mm 3 mps 664 mmHg 83%
    23:00 +5°C° 1.5 mm 3 mps 664 mmHg 84%

    Day after tomorrow, 13 December, Thursday

    Time Temperature Precipitation Wind Pressure Humidity
    00:00 +5°C° 1.5 mm 3 mps 664 mmHg 84%
    01:00 +5°C° 1.8 mm 3 mps 664 mmHg 85%
    02:00 +5°C° 1.8 mm 3 mps 664 mmHg 86%
    03:00 +5°C° 1.8 mm 3 mps 665 mmHg 87%
    04:00 +4°C° 0.5 mm 3 mps 665 mmHg 86%
    05:00 +3°C° 0.5 mm 4 mps 665 mmHg 85%
    06:00 +3°C° 0.5 mm 4 mps 665 mmHg 84%
    07:00 +3°C° 0.1 mm 3 mps 666 mmHg 82%
    08:00 +3°C° 0.1 mm 3 mps 667 mmHg 80%
    09:00 +4°C° 0.1 mm 3 mps 667 mmHg 78%
    10:00 +4°C° 0.1 mm 3 mps 668 mmHg 74%
    11:00 +5°C° 0.1 mm 3 mps 668 mmHg 71%
    12:00 +5°C° 0.1 mm 4 mps 668 mmHg 68%
    13:00 +5°C° 0.1 mm 3 mps 668 mmHg 67%
    14:00 +5°C° 0.1 mm 3 mps 669 mmHg 65%
    15:00 +5°C° 0.1 mm 3 mps 669 mmHg 64%
    16:00 +4°C° 0 mm 3 mps 670 mmHg 66%
    17:00 +4°C° 0 mm 2 mps 670 mmHg 68%
    18:00 +2°C° 0 mm 2 mps 671 mmHg 69%
    19:00 +2°C° 0 mm 2 mps 671 mmHg 70%
    20:00 +1°C° 0 mm 2 mps 672 mmHg 70%
    21:00 +1°C° 0 mm 2 mps 672 mmHg 70%
    22:00 -1°C° 0 mm 2 mps 672 mmHg 70%
    23:00 -1°C° 0 mm 2 mps 673 mmHg 70%

    14 December, Friday

    Time Temperature Precipitation Wind Pressure Humidity
    00:00 -2°C° 0 mm 2 mps 673 mmHg 70%
    01:00 -2°C° 0 mm 2 mps 673 mmHg 70%
    02:00 -2°C° 0 mm 2 mps 673 mmHg 70%
    03:00 -3°C° 0 mm 2 mps 673 mmHg 70%
    04:00 -3°C° 0 mm 2 mps 674 mmHg 70%
    05:00 -3°C° 0 mm 2 mps 674 mmHg 70%
    06:00 -3°C° 0 mm 2 mps 674 mmHg 70%
    07:00 -2°C° 0 mm 2 mps 674 mmHg 70%
    08:00 -1°C° 0 mm 2 mps 674 mmHg 69%
    09:00 -1°C° 0 mm 2 mps 675 mmHg 69%
    10:00 +2°C° 0 mm 2 mps 674 mmHg 68%
    11:00 +3°C° 0 mm 2 mps 674 mmHg 66%
    12:00 +3°C° 0 mm 3 mps 673 mmHg 65%
    13:00 +3°C° 0.1 mm 3 mps 673 mmHg 66%
    14:00 +4°C° 0.1 mm 2 mps 673 mmHg 66%
    15:00 +4°C° 0.1 mm 2 mps 672 mmHg 67%
    16:00 +3°C° 0.2 mm 2 mps 673 mmHg 68%
    17:00 +3°C° 0.2 mm 2 mps 673 mmHg 70%
    18:00 +2°C° 0.2 mm 2 mps 673 mmHg 71%
    19:00 +2°C° 0.1 mm 2 mps 673 mmHg 71%
    20:00 +2°C° 0.1 mm 2 mps 673 mmHg 72%
    21:00 +2°C° 0.1 mm 2 mps 673 mmHg 72%
    22:00 +1°C° 0.1 mm 2 mps 673 mmHg 73%
    23:00 +1°C° 0.1 mm 2 mps 674 mmHg 73%

    15 December, Saturday

    Time Temperature Precipitation Wind Pressure Humidity
    00:00 +2°C° 0.1 mm 1 mps 674 mmHg 74%
    01:00 +2°C° 0.1 mm 1 mps 674 mmHg 74%
    02:00 +2°C° 0.1 mm 1 mps 674 mmHg 74%
    03:00 +1°C° 0.1 mm 1 mps 674 mmHg 74%
    04:00 +1°C° 0.1 mm 1 mps 674 mmHg 74%
    05:00 +1°C° 0.1 mm 1 mps 674 mmHg 75%
    06:00 +1°C° 0.1 mm 1 mps 675 mmHg 75%
    07:00 +1°C° 0 mm 1 mps 675 mmHg 74%
    08:00 +2°C° 0 mm 1 mps 675 mmHg 73%
    09:00 +3°C° 0 mm 1 mps 676 mmHg 72%
    10:00 +4°C° 0 mm 1 mps 676 mmHg 71%
    11:00 +4°C° 0 mm 2 mps 675 mmHg 70%
    12:00 +5°C° 0 mm 2 mps 675 mmHg 68%
    13:00 +5°C° 0 mm 2 mps 675 mmHg 68%
    14:00 +5°C° 0 mm 2 mps 675 mmHg 68%
    15:00 +6°C° 0 mm 1 mps 675 mmHg 67%
    16:00 +4°C° 0 mm 1 mps 675 mmHg 68%
    17:00 +3°C° 0 mm 1 mps 676 mmHg 68%
    18:00 +2°C° 0 mm 1 mps 676 mmHg 68%
    19:00 +2°C° 0 mm 1 mps 676 mmHg 68%
    20:00 +2°C° 0 mm 1 mps 676 mmHg 68%
    21:00 +2°C° 0 mm 1 mps 676 mmHg 68%
    22:00 +1°C° 0 mm 1 mps 676 mmHg 68%
    23:00 +1°C° 0 mm 1 mps 676 mmHg 69%

    16 December, Sunday

    Time Temperature Precipitation Wind Pressure Humidity
    00:00 +1°C° 0 mm 1 mps 676 mmHg 69%
    01:00 +1°C° 0 mm 1 mps 676 mmHg 69%
    02:00 +1°C° 0 mm 1 mps 676 mmHg 69%
    03:00 +1°C° 0 mm 1 mps 676 mmHg 68%
    04:00 +2°C° 0 mm 1 mps 676 mmHg 68%
    05:00 +2°C° 0 mm 1 mps 676 mmHg 68%
    06:00 +2°C° 0 mm 1 mps 676 mmHg 68%
    07:00 +3°C° 0 mm 1 mps 676 mmHg 67%
    08:00 +3°C° 0 mm 1 mps 676 mmHg 67%
    09:00 +4°C° 0 mm 1 mps 677 mmHg 66%
    10:00 +5°C° 0 mm 1 mps 676 mmHg 66%
    11:00 +5°C° 0 mm 2 mps 676 mmHg 65%
    12:00 +6°C° 0 mm 2 mps 676 mmHg 64%
    13:00 +6°C° 0 mm 2 mps 676 mmHg 63%
    14:00 +6°C° 0 mm 2 mps 676 mmHg 63%
    15:00 +7°C° 0 mm 1 mps 675 mmHg 62%
    16:00 +6°C° 0 mm 1 mps 675 mmHg 62%
    17:00 +5°C° 0 mm 1 mps 675 mmHg 62%
    18:00 +4°C° 0 mm 1 mps 676 mmHg 62%
    19:00 +4°C° 0 mm 1 mps 676 mmHg 61%
    20:00 +4°C° 0 mm 1 mps 676 mmHg 61%
    21:00 +3°C° 0 mm 1 mps 676 mmHg 60%
    22:00 +3°C° 0 mm 1 mps 676 mmHg 60%
    23:00 +3°C° 0 mm 1 mps 676 mmHg 60%
    Show more